When you browse on this site, cookies collect data to enhance your experience and personalize the content and advertising you see.
Visit our Privacy Policy to learn more. By continuing to use the site, you agree to this use of cookies and data.
  • In Sweden
  • List of Countries
  • For 7 days
  • Water Temperature
  • Satellite Maps
  • Weather Map
  • Weather Widgets
  • user-avatar
    Login

    Hourly Weather Tottori

    Today, 27 June, Thursday

    Time Temperature Precipitation Wind Pressure Humidity
    00:00 +23°C° 0 mm 2 mps 727 mmHg 98%
    01:00 +23°C° 0 mm 2 mps 726 mmHg 98%
    02:00 +23°C° 0 mm 2 mps 726 mmHg 98%
    03:00 +23°C° 0 mm 2 mps 725 mmHg 99%
    04:00 +23°C° 0.3 mm 2 mps 725 mmHg 98%
    05:00 +22°C° 0.3 mm 3 mps 725 mmHg 98%
    06:00 +22°C° 0.3 mm 3 mps 725 mmHg 98%
    07:00 +22°C° 0.6 mm 3 mps 725 mmHg 98%
    08:00 +22°C° 0.6 mm 4 mps 724 mmHg 98%
    09:00 +22°C° 0.6 mm 4 mps 724 mmHg 98%
    10:00 +22°C° 0.9 mm 4 mps 724 mmHg 98%
    11:00 +22°C° 0.9 mm 4 mps 723 mmHg 97%
    12:00 +22°C° 0.9 mm 4 mps 723 mmHg 97%
    13:00 +22°C° 0.5 mm 4 mps 722 mmHg 97%
    14:00 +22°C° 0.5 mm 4 mps 722 mmHg 98%
    15:00 +22°C° 0.5 mm 4 mps 721 mmHg 98%
    16:00 +22°C° 0.4 mm 3 mps 721 mmHg 98%
    17:00 +22°C° 0.4 mm 3 mps 721 mmHg 98%
    18:00 +22°C° 0.4 mm 3 mps 721 mmHg 98%
    19:00 +22°C° 0.1 mm 3 mps 720 mmHg 98%
    20:00 +23°C° 0.1 mm 2 mps 720 mmHg 98%
    21:00 +23°C° 0.1 mm 2 mps 720 mmHg 97%
    22:00 +23°C° 0.1 mm 2 mps 720 mmHg 98%
    23:00 +23°C° 0.1 mm 1 mps 720 mmHg 98%

    Tomorrow, 28 June, Friday

    Time Temperature Precipitation Wind Pressure Humidity
    00:00 +23°C° 0.1 mm 1 mps 720 mmHg 99%
    01:00 +23°C° 0 mm 1 mps 720 mmHg 99%
    02:00 +23°C° 0 mm 1 mps 720 mmHg 99%
    03:00 +23°C° 0 mm 1 mps 720 mmHg 99%
    04:00 +23°C° 0.1 mm 1 mps 721 mmHg 99%
    05:00 +23°C° 0.1 mm 1 mps 721 mmHg 98%
    06:00 +23°C° 0.1 mm 1 mps 721 mmHg 98%
    07:00 +24°C° 0.1 mm 1 mps 721 mmHg 95%
    08:00 +25°C° 0.1 mm 1 mps 722 mmHg 92%
    09:00 +25°C° 0.1 mm 1 mps 722 mmHg 89%
    10:00 +27°C° 0.3 mm 2 mps 722 mmHg 83%
    11:00 +28°C° 0.3 mm 2 mps 722 mmHg 77%
    12:00 +29°C° 0.3 mm 2 mps 722 mmHg 71%
    13:00 +29°C° 0.6 mm 2 mps 722 mmHg 72%
    14:00 +29°C° 0.6 mm 2 mps 721 mmHg 73%
    15:00 +29°C° 0.6 mm 2 mps 721 mmHg 75%
    16:00 +28°C° 0.4 mm 2 mps 721 mmHg 80%
    17:00 +27°C° 0.4 mm 1 mps 721 mmHg 86%
    18:00 +26°C° 0.4 mm 1 mps 721 mmHg 91%
    19:00 +24°C° 0.2 mm 1 mps 721 mmHg 93%
    20:00 +23°C° 0.2 mm 1 mps 721 mmHg 95%
    21:00 +22°C° 0.2 mm 1 mps 722 mmHg 97%
    22:00 +20°C° 0 mm 0 mps 722 mmHg 96%
    23:00 +20°C° 0 mm 0 mps 721 mmHg 95%

    Day after tomorrow, 29 June, Saturday

    Time Temperature Precipitation Wind Pressure Humidity
    00:00 +20°C° 0 mm 0 mps 721 mmHg 95%
    01:00 +20°C° 0 mm 0 mps 721 mmHg 95%
    02:00 +20°C° 0 mm 0 mps 721 mmHg 95%
    03:00 +22°C° 0 mm 1 mps 720 mmHg 95%
    04:00 +20°C° 0.2 mm 0 mps 721 mmHg 95%
    05:00 +21°C° 0.2 mm 0 mps 721 mmHg 95%
    06:00 +21°C° 0.2 mm 0 mps 721 mmHg 95%
    07:00 +22°C° 0.2 mm 0 mps 721 mmHg 92%
    08:00 +25°C° 0.2 mm 1 mps 721 mmHg 89%
    09:00 +26°C° 0.2 mm 1 mps 721 mmHg 86%
    10:00 +27°C° 0.4 mm 1 mps 721 mmHg 86%
    11:00 +27°C° 0.4 mm 1 mps 721 mmHg 86%
    12:00 +27°C° 0.4 mm 1 mps 721 mmHg 86%
    13:00 +26°C° 0.7 mm 1 mps 721 mmHg 88%
    14:00 +26°C° 0.7 mm 1 mps 720 mmHg 91%
    15:00 +25°C° 0.7 mm 1 mps 720 mmHg 94%
    16:00 +25°C° 2.5 mm 1 mps 720 mmHg 95%
    17:00 +24°C° 2.5 mm 1 mps 720 mmHg 97%
    18:00 +23°C° 2.5 mm 1 mps 720 mmHg 99%
    19:00 +23°C° 4.3 mm 1 mps 719 mmHg 99%
    20:00 +23°C° 4.3 mm 1 mps 719 mmHg 99%
    21:00 +23°C° 4.3 mm 1 mps 719 mmHg 99%
    22:00 +24°C° 2.7 mm 2 mps 719 mmHg 99%
    23:00 +24°C° 2.7 mm 2 mps 718 mmHg 99%

    30 June, Sunday

    Time Temperature Precipitation Wind Pressure Humidity
    00:00 +24°C° 2.7 mm 2 mps 718 mmHg 99%
    01:00 +24°C° 2.8 mm 2 mps 717 mmHg 99%
    02:00 +24°C° 2.8 mm 2 mps 717 mmHg 99%
    03:00 +24°C° 2.8 mm 3 mps 716 mmHg 99%
    04:00 +24°C° 2.5 mm 3 mps 716 mmHg 99%
    05:00 +24°C° 2.5 mm 3 mps 716 mmHg 99%
    06:00 +24°C° 2.5 mm 3 mps 716 mmHg 99%
    07:00 +24°C° 3 mm 3 mps 716 mmHg 99%
    08:00 +24°C° 3 mm 3 mps 717 mmHg 99%
    09:00 +24°C° 3 mm 2 mps 717 mmHg 99%
    10:00 +25°C° 1.7 mm 2 mps 717 mmHg 98%
    11:00 +25°C° 1.7 mm 2 mps 717 mmHg 98%
    12:00 +25°C° 1.7 mm 2 mps 717 mmHg 97%
    13:00 +26°C° 0.4 mm 2 mps 718 mmHg 95%
    14:00 +27°C° 0.4 mm 2 mps 718 mmHg 92%
    15:00 +27°C° 0.4 mm 2 mps 718 mmHg 90%
    16:00 +27°C° 0.4 mm 1 mps 718 mmHg 91%
    17:00 +26°C° 0.4 mm 1 mps 719 mmHg 93%
    18:00 +26°C° 0.4 mm 1 mps 719 mmHg 94%
    19:00 +23°C° 0.1 mm 0 mps 720 mmHg 95%
    20:00 +22°C° 0.1 mm 0 mps 720 mmHg 96%
    21:00 +22°C° 0.1 mm 0 mps 721 mmHg 97%
    22:00 +21°C° 0 mm 0 mps 721 mmHg 97%
    23:00 +21°C° 0 mm 0 mps 721 mmHg 97%

    1 July, Monday

    Time Temperature Precipitation Wind Pressure Humidity
    00:00 +20°C° 0 mm 0 mps 721 mmHg 97%
    01:00 +20°C° 0 mm 0 mps 721 mmHg 97%
    02:00 +20°C° 0 mm 0 mps 721 mmHg 97%
    03:00 +19°C° 0 mm 0 mps 721 mmHg 97%
    04:00 +20°C° 0 mm 0 mps 721 mmHg 97%
    05:00 +22°C° 0 mm 1 mps 721 mmHg 97%
    06:00 +23°C° 0 mm 1 mps 721 mmHg 97%
    07:00 +24°C° 0 mm 1 mps 722 mmHg 92%
    08:00 +26°C° 0 mm 1 mps 722 mmHg 86%
    09:00 +27°C° 0 mm 1 mps 722 mmHg 80%
    10:00 +28°C° 0 mm 2 mps 722 mmHg 75%
    11:00 +30°C° 0 mm 2 mps 722 mmHg 69%
    12:00 +31°C° 0 mm 2 mps 722 mmHg 63%
    13:00 +30°C° 0.3 mm 2 mps 721 mmHg 68%
    14:00 +29°C° 0.3 mm 2 mps 721 mmHg 74%
    15:00 +28°C° 0.3 mm 2 mps 721 mmHg 79%
    16:00 +27°C° 0.4 mm 2 mps 721 mmHg 83%
    17:00 +26°C° 0.4 mm 2 mps 721 mmHg 87%
    18:00 +25°C° 0.4 mm 2 mps 721 mmHg 91%
    19:00 +24°C° 0.1 mm 2 mps 721 mmHg 93%
    20:00 +23°C° 0.1 mm 2 mps 722 mmHg 95%
    21:00 +23°C° 0.1 mm 2 mps 722 mmHg 97%
    22:00 +23°C° 0.4 mm 2 mps 722 mmHg 98%
    23:00 +23°C° 0.4 mm 1 mps 722 mmHg 98%

    2 July, Tuesday

    Time Temperature Precipitation Wind Pressure Humidity
    00:00 +22°C° 0.4 mm 1 mps 722 mmHg 98%
    01:00 +23°C° 0.1 mm 1 mps 722 mmHg 98%
    02:00 +23°C° 0.1 mm 1 mps 722 mmHg 98%
    03:00 +23°C° 0.1 mm 1 mps 723 mmHg 99%
    04:00 +22°C° 0.1 mm 1 mps 723 mmHg 98%
    05:00 +22°C° 0.1 mm 1 mps 723 mmHg 98%
    06:00 +21°C° 0.1 mm 2 mps 723 mmHg 97%
    07:00 +23°C° 0 mm 2 mps 724 mmHg 87%
    08:00 +25°C° 0 mm 2 mps 724 mmHg 77%
    09:00 +26°C° 0 mm 2 mps 725 mmHg 67%
    10:00 +27°C° 0.1 mm 2 mps 725 mmHg 64%
    11:00 +27°C° 0.1 mm 3 mps 725 mmHg 62%
    12:00 +28°C° 0.1 mm 3 mps 725 mmHg 59%
    13:00 +28°C° 0.1 mm 2 mps 725 mmHg 63%
    14:00 +27°C° 0.1 mm 2 mps 725 mmHg 66%
    15:00 +27°C° 0.1 mm 2 mps 725 mmHg 69%
    16:00 +26°C° 0.1 mm 1 mps 725 mmHg 72%
    17:00 +25°C° 0.1 mm 1 mps 725 mmHg 75%
    18:00 +25°C° 0.1 mm 1 mps 725 mmHg 78%
    19:00 +23°C° 0 mm 1 mps 725 mmHg 80%
    20:00 +22°C° 0 mm 1 mps 726 mmHg 82%
    21:00 +20°C° 0 mm 1 mps 726 mmHg 83%
    22:00 +20°C° 0 mm 1 mps 726 mmHg 80%
    23:00 +19°C° 0 mm 1 mps 726 mmHg 78%
    Show more